Regional Weather Roundup
Issued by NWS

Home | Current Version | Previous Version | Graphics & Text | Print | Product List | Glossary On
Versions: 1 2 3 4 5 6 7 8 9 10 11 12 13 14 15 16 17 18 19 20 21 22 23 24 25 26 27 28 29 30 31 32 33 34 35 36 37 38 39 40 41 42 43 44 45 46 47 48 49 50
638
ASUS44 KLIX 300301
RWRLA
LOUISIANA WEATHER ROUNDUP
NATIONAL WEATHER SERVICE NEW ORLEANS LA
1000 PM CDT WED OCT 29 2014

NOTE: "FAIR" INDICATES FEW OR NO CLOUDS BELOW 12,000 FEET WITH NO
      SIGNIFICANT WEATHER AND/OR OBSTRUCTIONS TO VISIBILITY.
      SKY/WX - SKY CONDITION AND SIGNIFICANT WEATHER.
      TMP - AIR TEMPERATURE.    DP   - DEWPOINT TEMPERATURE.
      RH  - RELATIVE HUMIDITY.  PRES - PRESSURE.
      HX  - HEAT INDEX.         WCI  - WIND CHILL INDEX.

*  THESE STATIONS ARE NOT NWS OR FAA STATIONS AND ARE NOT UNDER
   NWS QUALITY CONTROL.

LAZ040-048-061>063-065-066-069-300400-
SOUTHEAST LOUISIANA

CITY           SKY/WX    TMP DP  RH WIND       PRES   REMARKS
N.O. AUDUBON     N/A     72  67  83 MISG        N/A
N.O. INTL ARPT CLOUDY    73  64  73 NE13      30.07R
N.O. LAKEFRONT MOCLDY    73  64  73 N18       30.07R
N.O. DOWNTOWN* CLOUDY    73  61  64 N8        30.07R
SLIDELL        PTCLDY    68  63  84 N6        30.06S
BATON ROUGE    CLOUDY    65  58  78 VRB3      30.09S
BOOTHVILLE     CLOUDY    74  68  81 CALM      30.04R
BELLE CHASSE   CLOUDY    74  63  68 N9        30.05R
BOGALUSA*        N/A     65  54  67 N7        30.10S
NEW ROADS*     FAIR      61  56  82 N6        30.11R
GONZALES*      FAIR      66  66 100 N3        30.08S
HAMMOND*       NOT AVBL
HOUMA*         MOCLDY    71  67  89 N10       30.07R
PORT FOURCHON* MOCLDY    75  68  78 NE10G18   30.08R

$$

LAZ041-044-053-054-300400-
SOUTHWEST LOUISIANA

CITY           SKY/WX    TMP DP  RH WIND       PRES   REMARKS
LAKE CHARLES   CLEAR     65  59  81 N7        30.11R
LAFAYETTE      CLOUDY    66  62  87 N6        30.10R
PATTERSON      CLOUDY    68  64  88 N8        30.11R
SALT POINT       N/A     69  66  90 CALM      30.07S
NEW IBERIA     MOCLDY    68  62  81 N9        30.10R
CHENAULT AIRPK CLEAR     63  59  88 N3        30.12R

$$

LAZ027-028-300400-
CENTRAL LOUISIANA

CITY           SKY/WX    TMP DP  RH WIND       PRES   REMARKS
FORT POLK      CLEAR     59  50  73 NE6       30.13R
ALEXANDRIA INT CLEAR     55  49  80 N3        30.12R
ALEXANDRIA     CLEAR     51  50  96 CALM      30.13S

$$

LAZ001-002-300400-
NORTHWEST LOUISIANA

CITY           SKY/WX    TMP DP  RH WIND       PRES   REMARKS
SHREVEPORT     CLEAR     55  49  80 CALM      30.15R
BARKSDALE AFB  CLEAR     53  50  90 CALM      30.15S
DTN SHREVEPORT CLEAR     54  49  83 CALM      30.15S

$$

LAZ014-016-300400-
NORTHEAST LOUISIANA

CITY           SKY/WX    TMP DP  RH WIND       PRES   REMARKS
MONROE         CLEAR     55  47  74 NE3       30.16S
TALLULAH       CLEAR     51  46  83 CALM      30.15R

$$




USA.gov is the U.S. government's official web portal to all federal, state and local government web resources and services.